• In Österreich
  • Länderverzeichnis
  • Für 7 Tage
  • Wassertemperatur
  • Satellitenkarten
  • Wetterkarte
  • News
  • Widgets
  • user-avatar
    Anmelden

    Stündliche Wetter Ouahigouya

    Heute, 25 Juni, Montag

    Zeit Temperatur Niederschläge Wind Luftdruck Luftfeuchtigkeit
    00:00 +34°C° 0 mm 5 m/S 729 mmHg 47%
    01:00 +33°C° 0 mm 5 m/S 729 mmHg 50%
    02:00 +33°C° 0 mm 5 m/S 729 mmHg 54%
    03:00 +32°C° 0 mm 5 m/S 729 mmHg 58%
    04:00 +30°C° 0 mm 5 m/S 729 mmHg 60%
    05:00 +30°C° 0 mm 5 m/S 729 mmHg 61%
    06:00 +29°C° 0 mm 5 m/S 729 mmHg 63%
    07:00 +30°C° 0 mm 5 m/S 730 mmHg 59%
    08:00 +32°C° 0 mm 5 m/S 730 mmHg 56%
    09:00 +33°C° 0 mm 5 m/S 730 mmHg 53%
    10:00 +34°C° 0 mm 6 m/S 730 mmHg 47%
    11:00 +36°C° 0 mm 6 m/S 730 mmHg 42%
    12:00 +38°C° 0 mm 6 m/S 730 mmHg 37%
    13:00 +39°C° 0 mm 6 m/S 729 mmHg 34%
    14:00 +40°C° 0 mm 6 m/S 729 mmHg 32%
    15:00 +40°C° 0 mm 6 m/S 729 mmHg 29%
    16:00 +40°C° 0 mm 6 m/S 728 mmHg 30%
    17:00 +40°C° 0 mm 5 m/S 728 mmHg 30%
    18:00 +39°C° 0 mm 5 m/S 728 mmHg 31%
    19:00 +39°C° 0 mm 5 m/S 729 mmHg 35%
    20:00 +37°C° 0 mm 5 m/S 729 mmHg 38%
    21:00 +36°C° 0 mm 5 m/S 730 mmHg 41%
    22:00 +35°C° 0 mm 5 m/S 730 mmHg 45%
    23:00 +34°C° 0 mm 5 m/S 730 mmHg 48%

    Morgen, 26 Juni, Dienstag

    Zeit Temperatur Niederschläge Wind Luftdruck Luftfeuchtigkeit
    00:00 +34°C° 0 mm 5 m/S 730 mmHg 51%
    01:00 +33°C° 0 mm 5 m/S 729 mmHg 52%
    02:00 +33°C° 0 mm 5 m/S 729 mmHg 54%
    03:00 +32°C° 0 mm 5 m/S 729 mmHg 55%
    04:00 +32°C° 0 mm 5 m/S 729 mmHg 56%
    05:00 +32°C° 0 mm 5 m/S 729 mmHg 57%
    06:00 +30°C° 0 mm 4 m/S 729 mmHg 58%
    07:00 +32°C° 0 mm 5 m/S 730 mmHg 54%
    08:00 +33°C° 0 mm 5 m/S 730 mmHg 51%
    09:00 +34°C° 0 mm 5 m/S 730 mmHg 47%
    10:00 +36°C° 0 mm 4 m/S 730 mmHg 43%
    11:00 +37°C° 0 mm 3 m/S 730 mmHg 39%
    12:00 +38°C° 0 mm 3 m/S 730 mmHg 35%
    13:00 +38°C° 0,1 mm 2 m/S 729 mmHg 34%
    14:00 +39°C° 0,1 mm 2 m/S 729 mmHg 33%
    15:00 +39°C° 0,1 mm 2 m/S 728 mmHg 32%
    16:00 +39°C° 0 mm 2 m/S 728 mmHg 31%
    17:00 +39°C° 0 mm 1 m/S 728 mmHg 30%
    18:00 +39°C° 0 mm 1 m/S 727 mmHg 29%
    19:00 +39°C° 0 mm 1 m/S 728 mmHg 31%
    20:00 +38°C° 0 mm 2 m/S 728 mmHg 32%
    21:00 +38°C° 0 mm 2 m/S 728 mmHg 33%
    22:00 +37°C° 0 mm 2 m/S 728 mmHg 35%
    23:00 +37°C° 0 mm 3 m/S 728 mmHg 36%

    übermorgen, 27 Juni, Mittwoch

    Zeit Temperatur Niederschläge Wind Luftdruck Luftfeuchtigkeit
    00:00 +36°C° 0 mm 3 m/S 727 mmHg 38%
    01:00 +36°C° 0 mm 4 m/S 727 mmHg 38%
    02:00 +35°C° 0 mm 4 m/S 727 mmHg 39%
    03:00 +35°C° 0 mm 4 m/S 727 mmHg 40%
    04:00 +34°C° 1,8 mm 5 m/S 728 mmHg 47%
    05:00 +32°C° 1,8 mm 6 m/S 728 mmHg 54%
    06:00 +30°C° 1,8 mm 7 m/S 728 mmHg 61%
    07:00 +30°C° 0,5 mm 7 m/S 729 mmHg 61%
    08:00 +31°C° 0,5 mm 8 m/S 729 mmHg 62%
    09:00 +31°C° 0,5 mm 8 m/S 730 mmHg 62%
    10:00 +33°C° 0 mm 8 m/S 730 mmHg 57%
    11:00 +34°C° 0 mm 8 m/S 729 mmHg 53%
    12:00 +37°C° 0 mm 8 m/S 729 mmHg 48%
    13:00 +37°C° 0 mm 8 m/S 729 mmHg 47%
    14:00 +37°C° 0 mm 8 m/S 728 mmHg 46%
    15:00 +38°C° 0 mm 8 m/S 728 mmHg 44%
    16:00 +36°C° 0 mm 7 m/S 728 mmHg 46%
    17:00 +36°C° 0 mm 7 m/S 728 mmHg 47%
    18:00 +35°C° 0 mm 7 m/S 727 mmHg 48%
    19:00 +35°C° 0 mm 7 m/S 728 mmHg 51%
    20:00 +34°C° 0 mm 7 m/S 728 mmHg 54%
    21:00 +33°C° 0 mm 7 m/S 729 mmHg 57%
    22:00 +33°C° 0 mm 7 m/S 729 mmHg 58%
    23:00 +32°C° 0 mm 6 m/S 729 mmHg 60%

    28 Juni, Donnerstag

    Zeit Temperatur Niederschläge Wind Luftdruck Luftfeuchtigkeit
    00:00 +32°C° 0 mm 5 m/S 729 mmHg 61%
    01:00 +30°C° 0 mm 6 m/S 729 mmHg 62%
    02:00 +30°C° 0 mm 6 m/S 728 mmHg 63%
    03:00 +29°C° 0 mm 6 m/S 728 mmHg 63%
    04:00 +29°C° 0 mm 6 m/S 728 mmHg 64%
    05:00 +29°C° 0 mm 6 m/S 729 mmHg 65%
    06:00 +28°C° 0 mm 6 m/S 729 mmHg 66%
    07:00 +29°C° 0 mm 6 m/S 729 mmHg 61%
    08:00 +30°C° 0 mm 6 m/S 729 mmHg 56%
    09:00 +32°C° 0 mm 6 m/S 730 mmHg 51%
    10:00 +34°C° 0 mm 6 m/S 730 mmHg 46%
    11:00 +36°C° 0 mm 6 m/S 730 mmHg 41%
    12:00 +38°C° 0 mm 6 m/S 730 mmHg 36%
    13:00 +39°C° 0 mm 5 m/S 729 mmHg 34%
    14:00 +39°C° 0 mm 5 m/S 728 mmHg 32%
    15:00 +40°C° 0 mm 4 m/S 728 mmHg 31%
    16:00 +40°C° 0 mm 4 m/S 728 mmHg 31%
    17:00 +40°C° 0 mm 4 m/S 728 mmHg 31%
    18:00 +40°C° 0 mm 4 m/S 728 mmHg 31%
    19:00 +38°C° 0 mm 4 m/S 728 mmHg 32%
    20:00 +38°C° 0 mm 4 m/S 729 mmHg 34%
    21:00 +37°C° 0 mm 4 m/S 729 mmHg 35%
    22:00 +37°C° 0 mm 4 m/S 729 mmHg 38%
    23:00 +36°C° 0 mm 5 m/S 729 mmHg 40%

    29 Juni, Freitag

    Zeit Temperatur Niederschläge Wind Luftdruck Luftfeuchtigkeit
    00:00 +35°C° 0 mm 5 m/S 729 mmHg 42%
    01:00 +35°C° 0 mm 5 m/S 728 mmHg 45%
    02:00 +34°C° 0 mm 5 m/S 728 mmHg 48%
    03:00 +33°C° 0 mm 5 m/S 728 mmHg 50%
    04:00 +33°C° 0 mm 6 m/S 728 mmHg 53%
    05:00 +32°C° 0 mm 6 m/S 728 mmHg 55%
    06:00 +32°C° 0 mm 6 m/S 729 mmHg 57%
    07:00 +32°C° 0 mm 6 m/S 729 mmHg 56%
    08:00 +33°C° 0 mm 6 m/S 729 mmHg 55%
    09:00 +34°C° 0 mm 7 m/S 729 mmHg 54%
    10:00 +35°C° 0 mm 6 m/S 729 mmHg 49%
    11:00 +36°C° 0 mm 5 m/S 729 mmHg 44%
    12:00 +39°C° 0 mm 5 m/S 728 mmHg 39%
    13:00 +40°C° 0 mm 4 m/S 728 mmHg 37%
    14:00 +39°C° 0 mm 3 m/S 727 mmHg 34%
    15:00 +40°C° 0 mm 3 m/S 727 mmHg 31%
    16:00 +39°C° 0,6 mm 2 m/S 727 mmHg 33%
    17:00 +39°C° 0,6 mm 2 m/S 727 mmHg 34%
    18:00 +38°C° 0,6 mm 2 m/S 727 mmHg 36%
    19:00 +38°C° 0,1 mm 3 m/S 727 mmHg 38%
    20:00 +37°C° 0,1 mm 3 m/S 727 mmHg 40%
    21:00 +36°C° 0,1 mm 4 m/S 728 mmHg 42%
    22:00 +36°C° 0 mm 4 m/S 728 mmHg 45%
    23:00 +35°C° 0 mm 5 m/S 728 mmHg 47%

    30 Juni, Samstag

    Zeit Temperatur Niederschläge Wind Luftdruck Luftfeuchtigkeit
    00:00 +35°C° 0 mm 5 m/S 728 mmHg 49%
    01:00 +34°C° 0 mm 5 m/S 728 mmHg 51%
    02:00 +34°C° 0 mm 5 m/S 728 mmHg 53%
    03:00 +33°C° 0 mm 5 m/S 727 mmHg 55%
    04:00 +33°C° 0 mm 5 m/S 728 mmHg 57%
    05:00 +32°C° 0 mm 6 m/S 728 mmHg 59%
    06:00 +32°C° 0 mm 6 m/S 729 mmHg 61%
    07:00 +32°C° 0 mm 7 m/S 729 mmHg 59%
    08:00 +33°C° 0 mm 7 m/S 729 mmHg 57%
    09:00 +33°C° 0 mm 7 m/S 730 mmHg 55%
    10:00 +34°C° 0 mm 7 m/S 729 mmHg 50%
    11:00 +36°C° 0 mm 7 m/S 729 mmHg 46%
    12:00 +38°C° 0 mm 7 m/S 728 mmHg 41%
    13:00 +39°C° 0 mm 6 m/S 728 mmHg 38%
    14:00 +39°C° 0 mm 5 m/S 727 mmHg 35%
    15:00 +40°C° 0 mm 4 m/S 727 mmHg 33%
    16:00 +40°C° 0 mm 4 m/S 727 mmHg 32%
    17:00 +39°C° 0 mm 3 m/S 727 mmHg 32%
    18:00 +39°C° 0 mm 3 m/S 727 mmHg 32%
    19:00 +38°C° 0 mm 3 m/S 727 mmHg 34%
    20:00 +37°C° 0 mm 4 m/S 728 mmHg 37%
    21:00 +36°C° 0 mm 5 m/S 728 mmHg 40%
    22:00 +36°C° 0 mm 5 m/S 728 mmHg 42%
    23:00 +35°C° 0 mm 5 m/S 728 mmHg 45%
    Mehr zeigen